Tracking 29892 objects as of 21-Nov-2024
HD Live streaming from Space Station
objects crossing your sky now

SL-8 DEB

Track SL-8 DEB now!
10-day predictions


NORAD ID: 43117
Int'l Code: 2018-004G
Perigee: 757.8 km
Apogee: 788.1 km
Inclination: 74.1 °
Period: 100.2 minutes
Semi major axis: 7143 km
RCS: Unknown
Launch date: January 12, 2018
Source: Commonwealth of Independent States (former USSR) (CIS)
Launch site: SRIHARIKOTA (SRI)

Note: This is SATELLITE DEBRIS
Your satellite tracking list
Your tracking list is empty




NASA's NSSDC Master Catalog

Two Line Element Set (TLE):
1 43117U 88053E   24324.16469354  .00000457  00000-0  15995-3 0  9991
2 43117  74.0507 281.8215 0021189 220.6304 139.3270 14.37785343360689
Source of the keplerian elements: AFSPC